Wind_Speed
79 79 66 64 67 71 69 70 75 76 77 75 71 67 66 65 66 69 68 65 59 58 59 54 50 50 56 58 57 53 53 55 57 58 55 52 52 53 56 58 58 58 58 56
87 80 75 78 76 73 71 71 70 74 79 78 76 71 71 70 70 70 67 68 67 62 61 57 53 52 58 59 58 55 53 55 57 57 58 57 58 57 56 57 59 58 60 62
97 87 85 86 86 83 79 74 71 77 76 79 81 75 76 77 77 72 69 70 70 68 66 61 56 56 57 58 58 56 54 55 56 58 58 59 60 58 57 57 57 59 61 64
108 99 94 94 89 90 87 84 84 81 79 79 78 78 82 81 81 78 77 75 73 71 70 67 65 62 61 60 59 58 58 57 57 56 57 58 58 55 55 54 57 59 61 65
107 106 107 102 95 98 96 95 92 94 89 82 76 77 75 84 87 85 84 82 80 76 73 70 67 68 67 66 64 61 59 58 58 58 57 57 57 57 55 56 60 61 63 67
118 116 115 111 106 106 104 100 98 96 95 89 78 79 79 80 79 81 86 91 87 84 80 77 74 71 70 69 69 67 65 62 61 59 58 58 59 60 60 59 59 62 66 68
124 121 123 119 112 115 111 107 106 106 103 91 91 90 86 83 83 82 81 82 85 89 89 86 82 77 75 75 73 71 69 69 67 65 64 63 63 63 62 57 59 63 63 65
114 119 123 122 120 114 119 116 114 112 109 100 100 100 94 89 87 85 83 84 83 82 84 87 89 86 82 80 79 79 77 74 72 71 70 67 64 64 58 58 60 56 62 67
99 107 112 117 119 117 122 125 120 119 115 110 107 101 99 97 93 90 88 84 85 85 83 82 81 86 89 87 85 83 82 80 77 75 73 70 68 65 57 59 53 51 57 61
82 95 103 106 111 115 119 125 127 126 124 119 112 109 105 103 99 95 92 89 86 85 83 82 82 79 81 87 89 87 86 83 80 77 73 70 67 63 56 57 49 48 46 53
73 81 90 98 105 109 113 118 124 128 129 125 119 115 111 108 106 103 99 96 92 89 87 85 82 81 80 80 83 86 88 87 84 80 76 72 69 61 57 57 50 42 37 38
71 75 81 88 96 101 109 111 116 118 122 121 122 117 115 113 112 110 105 102 99 96 94 91 87 84 82 82 84 81 79 83 85 82 78 75 73 66 61 56 50 42 33 27
64 72 79 81 85 91 99 104 109 113 110 116 113 113 113 114 115 115 112 108 104 103 101 98 95 91 87 85 85 83 79 75 73 78 79 75 73 69 66 60 54 47 38 35
64 66 71 76 80 83 88 97 98 103 111 114 110 102 107 110 114 114 116 115 110 107 105 102 101 98 93 90 87 86 82 77 70 68 68 70 71 70 66 61 55 51 45 42
62 66 68 68 71 79 82 86 88 98 104 108 108 107 100 103 107 110 114 116 116 113 111 108 106 103 99 94 91 88 85 81 75 70 66 63 63 65 60 57 53 55 55 51
56 63 64 65 68 71 72 80 86 88 95 99 100 101 98 96 98 105 105 108 112 113 113 111 108 106 103 98 96 92 87 85 80 74 70 65 59 61 58 60 58 64 61 61
47 55 57 61 64 66 73 75 77 83 87 89 94 95 96 94 94 97 101 103 105 107 108 109 110 109 106 102 98 97 91 87 84 77 71 67 63 61 64 65 64 67 66 67
39 45 49 55 59 67 67 71 72 74 76 88 93 92 92 92 92 89 91 97 102 104 104 104 105 109 107 105 100 98 94 89 88 82 74 69 66 64 71 74 68 69 70 72
31 37 43 48 53 59 64 67 70 70 72 76 84 88 90 89 88 84 83 87 93 96 98 99 101 104 107 106 103 99 95 92 91 89 82 75 70 68 72 77 79 69 76 78
24 29 34 40 45 50 55 59 62 62 69 71 73 77 81 83 81 81 83 84 87 88 90 94 95 98 100 101 101 100 96 94 94 91 87 81 77 74 73 85 87 81 75 80
19 23 27 31 35 42 48 51 54 61 64 68 70 70 72 75 79 84 82 83 82 84 86 85 88 93 96 97 98 98 96 97 96 94 92 87 82 79 78 83 90 96 84 79
11 15 20 25 28 33 38 42 47 51 57 59 64 66 68 70 70 77 84 86 83 83 84 85 88 89 91 96 98 99 97 97 97 96 95 94 88 85 83 83 91 97 99 90
5 6 10 16 21 26 30 33 39 44 49 52 58 62 65 66 69 73 78 78 81 84 85 85 87 89 91 96 95 97 98 99 99 100 100 97 95 91 87 87 88 98 98 102
6 6 5 9 14 18 23 28 33 37 42 48 51 54 58 62 65 68 73 73 75 81 87 84 87 89 93 95 95 95 97 100 102 103 104 101 99 97 94 89 91 92 99 98
8 7 5 5 8 11 17 21 25 31 37 42 45 47 50 52 58 63 68 72 75 74 83 86 88 88 93 94 89 91 96 100 102 105 106 105 103 101 98 95 93 98 96 100
15 12 8 4 5 8 11 15 21 24 29 33 37 41 43 46 50 56 61 65 69 74 76 81 86 86 93 95 93 92 94 98 99 102 105 107 107 105 102 100 98 97 99 99
Wind_Direction
262 259 264 258 252 251 251 245 242 242 245 245 245 242 246 245 245 244 245 246 247 248 247 245 240 238 239 238 238 239 239 233 233 238 241 240 240 239 241 242 243 244 245 248
259 256 257 256 253 252 250 249 246 244 243 244 243 242 241 244 244 243 245 246 246 245 245 244 241 238 239 240 239 239 237 235 234 237 241 241 243 243 244 245 245 246 247 246
260 258 254 253 252 251 251 250 248 248 246 242 240 241 242 242 242 244 244 245 246 244 244 242 242 242 243 244 244 241 238 236 236 238 239 240 241 243 244 246 247 247 249 252
256 257 254 253 250 252 252 251 249 247 245 243 241 239 241 243 243 241 242 244 245 245 245 244 239 237 239 241 244 243 242 239 237 239 240 241 243 244 244 245 248 250 253 254
253 251 253 250 249 248 248 248 247 246 245 241 239 240 240 242 243 242 242 243 244 243 245 244 243 241 239 238 238 240 241 243 243 239 240 242 244 245 246 248 252 253 254 255
251 251 250 250 249 246 247 248 249 249 248 246 241 241 238 241 244 245 245 244 242 243 244 244 244 242 242 241 240 239 239 240 242 243 242 242 244 246 249 250 254 257 256 257
250 250 249 249 247 243 243 245 246 246 247 246 242 242 239 240 242 241 243 245 246 242 241 242 242 242 243 242 242 241 240 239 239 241 243 245 248 249 253 252 255 256 259 261
249 251 250 250 248 244 240 240 243 245 245 245 245 242 241 241 240 241 241 241 244 247 244 243 241 240 241 242 242 242 241 241 242 242 242 243 246 249 252 253 257 256 261 263
245 245 248 247 247 243 240 240 240 242 243 243 243 244 244 242 241 240 242 243 241 243 246 245 244 244 240 241 242 243 243 243 243 245 245 246 247 247 248 251 260 259 265 270
243 243 243 245 244 243 241 241 239 240 241 242 241 241 242 243 241 240 241 242 243 243 244 246 245 245 244 242 243 245 245 245 245 246 246 247 248 248 247 253 257 261 268 276
243 241 240 241 244 244 243 243 242 242 242 241 242 241 241 241 242 240 240 241 241 241 243 245 245 245 246 244 243 243 244 247 246 245 246 247 247 247 248 253 259 258 264 271
244 241 239 237 238 240 242 243 244 244 246 245 244 244 242 240 241 241 239 239 241 241 241 243 244 244 245 247 247 244 243 244 247 248 247 246 248 248 249 250 255 253 251 249
242 240 239 238 236 236 238 239 242 244 245 246 246 244 242 240 240 240 240 238 239 240 241 242 242 243 243 245 247 248 246 242 244 246 247 246 246 248 249 249 250 245 238 229
241 239 239 238 237 236 235 238 240 240 242 245 246 244 242 241 240 239 239 239 238 239 241 242 242 242 243 243 245 247 248 245 244 244 245 246 245 245 245 247 244 234 230 219
241 240 238 237 236 236 235 237 234 237 239 241 244 245 242 240 240 240 239 239 239 239 240 240 241 242 242 243 243 244 246 246 245 244 245 244 242 240 238 237 232 225 226 221
238 239 239 237 236 236 236 236 235 234 236 238 238 241 242 240 238 239 239 239 241 241 241 241 241 241 241 242 243 243 243 244 244 245 244 242 237 233 229 227 221 215 218 223
238 241 238 235 234 235 236 235 235 234 233 236 238 237 240 239 238 236 236 238 239 239 240 241 241 239 239 239 240 243 242 243 243 243 241 239 234 230 219 217 219 220 218 222
236 237 235 235 233 233 232 235 235 234 233 232 235 236 236 238 238 237 234 235 237 237 238 238 239 239 239 238 239 241 241 241 243 242 241 237 231 228 216 214 214 220 220 220
237 234 233 234 230 232 232 232 233 232 233 234 235 237 237 236 238 237 237 235 234 235 236 236 236 236 238 239 240 240 240 238 239 240 240 238 231 226 217 217 213 216 222 222
240 237 233 233 231 233 233 234 234 234 234 234 234 236 238 239 238 238 237 235 234 235 234 234 234 235 236 236 237 237 236 235 235 236 237 236 233 225 222 217 215 215 220 223
237 235 236 234 232 232 232 231 231 230 231 231 233 232 233 236 234 236 234 234 233 233 234 234 234 232 232 232 233 233 233 232 232 234 234 233 231 226 223 219 218 217 216 217
250 239 234 233 231 232 233 232 234 235 236 235 235 234 232 231 230 232 234 233 230 230 231 230 231 231 230 231 230 230 231 231 232 231 232 230 228 228 224 222 220 219 220 218
287 253 237 233 229 229 231 231 231 233 235 236 235 234 233 231 230 228 231 233 231 230 228 228 228 229 230 229 228 229 229 230 230 229 229 229 228 228 227 224 223 222 225 225
342 306 263 235 231 227 228 228 228 230 232 235 235 234 233 232 231 230 229 231 231 227 229 227 228 226 228 229 228 226 226 226 226 226 225 226 227 227 228 226 224 225 226 230
15 353 313 272 238 229 226 226 228 230 232 235 236 235 234 231 232 231 230 228 227 227 227 227 227 225 226 229 229 227 225 226 225 224 224 224 226 228 228 229 228 226 227 228
16 357 342 300 256 239 233 229 227 230 233 235 235 236 236 233 229 230 230 229 228 226 226 226 227 224 224 227 229 227 225 228 228 227 226 226 227 228 229 231 233 231 230 230
Height
10505 10503 10528 10530 10527 10525 10532 10538 10543 10548 10550 10556 10567 10579 10583 10588 10592 10594 10598 10603 10612 10618 10622 10634 10642 10648 10649 10654 10662 10671 10678 10683 10689 10693 10699 10705 10709 10714 10719 10724 10729 10735 10741 10746
10472 10490 10500 10498 10503 10508 10512 10518 10526 10528 10530 10539 10546 10558 10563 10567 10570 10574 10586 10593 10598 10605 10610 10618 10628 10635 10635 10641 10650 10657 10665 10669 10675 10681 10686 10694 10696 10702 10707 10712 10716 10721 10724 10729
10444 10465 10463 10469 10476 10482 10491 10500 10504 10504 10510 10519 10526 10540 10541 10543 10550 10562 10569 10573 10580 10588 10595 10605 10617 10623 10627 10631 10637 10645 10651 10656 10662 10667 10672 10678 10683 10689 10693 10696 10699 10704 10709 10712
10410 10435 10440 10436 10449 10458 10467 10471 10474 10480 10485 10494 10505 10519 10521 10524 10531 10542 10548 10555 10562 10571 10578 10587 10597 10603 10610 10616 10622 10630 10636 10643 10649 10655 10660 10664 10669 10676 10679 10683 10688 10692 10695 10696
10397 10400 10400 10405 10424 10422 10434 10439 10444 10445 10455 10471 10488 10497 10507 10506 10512 10522 10528 10535 10543 10553 10561 10569 10579 10587 10594 10600 10607 10613 10620 10628 10636 10643 10648 10653 10657 10661 10667 10671 10674 10678 10679 10679
10351 10359 10366 10380 10389 10393 10399 10410 10417 10423 10431 10447 10471 10473 10482 10487 10494 10501 10509 10514 10525 10534 10543 10551 10559 10568 10575 10583 10591 10598 10604 10611 10618 10625 10632 10637 10641 10645 10650 10655 10659 10658 10660 10663
10307 10318 10328 10338 10348 10359 10369 10379 10385 10389 10398 10433 10440 10445 10457 10466 10472 10482 10488 10493 10500 10513 10521 10529 10540 10549 10557 10564 10572 10580 10588 10594 10600 10607 10612 10619 10625 10630 10634 10640 10640 10639 10643 10644
10267 10276 10284 10299 10314 10330 10341 10345 10356 10361 10378 10399 10404 10413 10431 10440 10450 10459 10466 10474 10480 10488 10498 10509 10518 10528 10537 10544 10551 10559 10568 10577 10583 10590 10595 10602 10607 10612 10620 10623 10622 10627 10625 10625
10231 10240 10248 10261 10277 10296 10303 10310 10327 10333 10347 10361 10374 10393 10407 10416 10425 10438 10446 10453 10462 10470 10477 10487 10499 10508 10516 10523 10531 10539 10548 10557 10565 10573 10580 10586 10591 10597 10605 10606 10608 10610 10609 10604
10205 10209 10219 10227 10244 10256 10268 10277 10290 10298 10310 10329 10351 10364 10377 10391 10402 10414 10425 10432 10442 10450 10459 10467 10477 10487 10495 10505 10512 10520 10528 10537 10546 10555 10563 10569 10574 10583 10591 10591 10595 10595 10595 10589
10175 10181 10189 10203 10206 10221 10236 10247 10258 10271 10281 10301 10317 10335 10356 10367 10375 10388 10399 10409 10420 10429 10437 10447 10458 10466 10475 10483 10490 10499 10509 10517 10526 10536 10546 10553 10557 10569 10575 10577 10581 10584 10585 10580
10144 10151 10158 10169 10179 10191 10203 10216 10230 10240 10254 10272 10288 10308 10328 10340 10349 10360 10372 10384 10396 10407 10417 10426 10436 10446 10455 10463 10470 10480 10490 10499 10508 10517 10527 10535 10541 10551 10558 10564 10568 10572 10576 10573
10115 10121 10129 10141 10155 10167 10174 10189 10202 10214 10230 10238 10252 10276 10299 10311 10322 10332 10345 10358 10371 10382 10393 10405 10414 10424 10434 10443 10450 10460 10471 10481 10490 10498 10508 10516 10524 10533 10540 10550 10555 10560 10566 10569
10090 10096 10106 10117 10132 10142 10154 10159 10177 10192 10200 10206 10219 10243 10268 10281 10294 10306 10319 10331 10345 10356 10369 10381 10390 10401 10412 10423 10432 10441 10452 10463 10473 10481 10489 10497 10507 10514 10524 10533 10541 10546 10553 10558
10071 10077 10086 10098 10108 10116 10128 10138 10155 10162 10172 10182 10195 10211 10230 10251 10267 10279 10291 10303 10318 10330 10343 10355 10366 10377 10389 10401 10412 10423 10432 10444 10455 10465 10472 10481 10489 10497 10510 10516 10525 10532 10539 10548
10055 10058 10068 10080 10090 10099 10109 10118 10130 10140 10147 10156 10171 10183 10196 10218 10237 10250 10264 10279 10293 10307 10320 10332 10344 10356 10367 10379 10390 10401 10413 10423 10434 10446 10457 10464 10474 10482 10493 10500 10510 10519 10526 10535
10040 10043 10054 10063 10072 10082 10084 10093 10106 10118 10127 10138 10145 10160 10171 10187 10200 10219 10237 10252 10266 10278 10292 10305 10317 10330 10343 10355 10368 10379 10392 10403 10414 10426 10438 10448 10457 10466 10477 10486 10494 10502 10511 10519
10027 10030 10038 10046 10056 10057 10070 10076 10088 10098 10108 10117 10122 10135 10150 10161 10175 10192 10212 10226 10238 10250 10264 10278 10290 10305 10319 10332 10345 10357 10371 10384 10394 10407 10420 10431 10441 10449 10461 10470 10478 10485 10495 10504
10015 10019 10024 10029 10038 10045 10052 10058 10066 10078 10089 10099 10108 10119 10130 10145 10155 10172 10187 10204 10215 10226 10239 10253 10265 10279 10294 10309 10323 10335 10349 10362 10373 10385 10399 10412 10423 10431 10442 10452 10464 10471 10477 10485
10005 10009 10014 10019 10026 10032 10039 10046 10056 10067 10071 10081 10092 10102 10111 10125 10141 10153 10167 10179 10190 10204 10217 10228 10243 10257 10270 10283 10297 10310 10324 10338 10351 10364 10376 10389 10403 10414 10423 10434 10444 10455 10462 10468
9999 10002 10005 10010 10015 10020 10024 10033 10041 10045 10055 10060 10069 10082 10094 10106 10122 10128 10143 10153 10167 10181 10195 10208 10220 10232 10243 10258 10271 10285 10300 10314 10328 10341 10354 10366 10380 10392 10403 10414 10424 10435 10445 10453
9996 9998 10000 10003 10007 10011 10015 10023 10029 10035 10039 10050 10057 10066 10076 10088 10099 10108 10115 10128 10143 10157 10171 10185 10197 10208 10220 10230 10246 10259 10276 10291 10304 10319 10331 10342 10356 10369 10381 10391 10403 10414 10425 10436
9994 9994 9996 9998 10001 10003 10007 10013 10018 10023 10027 10034 10039 10046 10055 10067 10077 10087 10092 10104 10118 10133 10146 10160 10173 10183 10194 10203 10222 10235 10250 10266 10279 10292 10306 10320 10333 10346 10359 10371 10382 10392 10403 10413
9992 9991 9992 9994 9995 9997 10000 10003 10006 10012 10015 10018 10025 10032 10040 10050 10059 10069 10076 10086 10095 10111 10122 10138 10148 10160 10170 10181 10199 10213 10226 10239 10254 10267 10282 10296 10310 10322 10336 10350 10362 10371 10379 10386
9991 9991 9990 9990 9991 9992 9994 9996 10000 10002 10005 10007 10013 10019 10025 10035 10042 10049 10056 10064 10074 10088 10101 10115 10124 10139 10149 10163 10181 10196 10206 10217 10232 10247 10262 10275 10288 10299 10314 10326 10337 10346 10354 10362
9992 9991 9989 9988 9988 9988 9989 9991 9992 9995 9997 10000 10003 10008 10014 10020 10027 10032 10038 10047 10058 10069 10079 10092 10105 10119 10130 10143 10158 10175 10190 10201 10214 10229 10244 10255 10266 10278 10293 10304 10313 10323 10332 10341